Flag for Germany Weather past 2 weeks in Tuttlingen, Baden-Württemberg, Germany

Now
61 °F

Passing clouds.


Feels Like: 61 °F
Forecast: 36 / 67 °F
Wind: 2 mph from Northeast

Location: Konstanz

Current Time: Apr 21, 2015 at 9:40:28 PM

Latest Report: Apr 21, 2015 at 9:00 PM


Visibility: 47 mi

Pressure: 30.31 "Hg

Humidity: 36%

Dew point: 34 °F

Location of TuttlingenLocation

Historic Weather in Tuttlingen — Graph

°F

Tuttlingen temperature yesterday

Maximum temperature yesterday: 66 °F (at 4:00 PM)
Minimum temperature yesterday: 40 °F (at 7:00 AM)
Average temperature yesterday: 53 °F

Past Weeks' High & Low Weather Summary

 TemperatureHumidityPressure
High74 °F (Apr 15, 4:00 PM)99% (Apr 17, 10:00 PM)30.62 "Hg (Apr 17, 10:00 PM)
Low31 °F (Apr 8, 7:00 AM)20% (Apr 8, 5:00 PM)29.88 "Hg (Apr 16, 6:00 PM)
Average53 °F58%30.26 "Hg
* Reported Apr 6 8:00 PM — Apr 21 8:00 PM, Tuttlingen, Weather by CustomWeather, © 2015

Note: Actual official high and low records may vary slightly from our data, if they occured in-between our weather recording intervals... More about our weather records

Advertising

Tuttlingen weather history for previous 24 hours

 ConditionsComfort  
Time TempWeatherWind HumidityBarometerVisibility
8:00 PM
Tue, Apr 21
67 °FPassing clouds.1 mph28%30.28 "Hg47 mi
7:00 PM70 °FPassing clouds.1 mph26%30.27 "Hg47 mi
6:00 PM71 °FPassing clouds.2 mph25%30.27 "Hg47 mi
5:00 PM71 °FPassing clouds.3 mph26%30.28 "Hg37 mi
4:00 PM70 °FPassing clouds.3 mph26%30.29 "Hg37 mi
3:00 PM70 °FPassing clouds.3 mph30%30.30 "Hg37 mi
2:00 PM67 °FPassing clouds.3 mph32%30.32 "Hg28 mi
1:00 PM65 °FPassing clouds.3 mph39%30.34 "Hg28 mi
12:00 PM59 °FPassing clouds.2 mph46%30.36 "Hg25 mi
11:00 AM56 °FPassing clouds.2 mph48%30.37 "Hg25 mi
10:00 AM55 °FPassing clouds.2 mph52%30.37 "Hg28 mi
9:00 AM52 °FPassing clouds.1 mph64%30.37 "Hg22 mi
8:00 AM46 °FPassing clouds.1 mph75%30.38 "Hg22 mi
7:00 AM42 °FPassing clouds.1 mph87%30.37 "Hg25 mi
6:00 AM44 °FPassing clouds.1 mph86%30.34 "Hg19 mi
5:00 AM44 °FClear.2 mph81%30.34 "Hg17 mi
4:00 AM45 °FClear.1 mph73%30.33 "Hg19 mi
3:00 AM47 °FClear.2 mph66%30.33 "Hg22 mi
2:00 AM48 °FClear.1 mph67%30.33 "Hg22 mi
1:00 AM49 °FClear.2 mph59%30.32 "Hg25 mi
12:00 AM50 °FClear.2 mph59%30.31 "Hg25 mi
11:00 PM
Mon, Apr 20
53 °FClear.2 mph52%30.30 "Hg25 mi
10:00 PM53 °FClear.2 mph48%30.28 "Hg28 mi
9:00 PM56 °FClear.2 mph46%30.25 "Hg25 mi
Weather by CustomWeather, © 2015

See weather overviewHow to use our weather pages